• In Deutschland
  • Länderverzeichnis
  • Für 7 Tage
  • Wassertemperatur
  • Satellitenkarten
  • Wetterkarte
  • Widgets
  • user-avatar
    Anmelden

    Stündliche Wetter Jajce

    Heute, 21 Oktober, Sonntag

    Zeit Temperatur Niederschläge Wind Luftdruck Luftfeuchtigkeit
    00:00 +7°C° 0 mm 1 m/S 679 mmHg 93%
    01:00 +7°C° 0 mm 1 m/S 679 mmHg 94%
    02:00 +7°C° 0 mm 1 m/S 678 mmHg 93%
    03:00 +7°C° 0 mm 1 m/S 678 mmHg 93%
    04:00 +7°C° 0 mm 1 m/S 678 mmHg 93%
    05:00 +7°C° 0.2 mm 1 m/S 678 mmHg 93%
    06:00 +7°C° 0.2 mm 1 m/S 678 mmHg 93%
    07:00 +7°C° 0.2 mm 1 m/S 678 mmHg 93%
    08:00 +6°C° 0.5 mm 2 m/S 678 mmHg 91%
    09:00 +6°C° 0.5 mm 2 m/S 678 mmHg 89%
    10:00 +6°C° 0.5 mm 2 m/S 678 mmHg 87%
    11:00 +6°C° 0.2 mm 2 m/S 678 mmHg 85%
    12:00 +6°C° 0.2 mm 2 m/S 678 mmHg 82%
    13:00 +5°C° 0.2 mm 3 m/S 678 mmHg 80%
    14:00 +6°C° 0.1 mm 2 m/S 678 mmHg 80%
    15:00 +5°C° 0.1 mm 2 m/S 678 mmHg 80%
    16:00 +5°C° 0.1 mm 2 m/S 677 mmHg 80%
    17:00 +4°C° 0 mm 2 m/S 677 mmHg 84%
    18:00 +4°C° 0 mm 1 m/S 677 mmHg 87%
    19:00 +3°C° 0 mm 1 m/S 677 mmHg 91%
    20:00 +4°C° 0 mm 1 m/S 677 mmHg 91%
    21:00 +4°C° 0 mm 1 m/S 677 mmHg 91%
    22:00 +4°C° 0 mm 1 m/S 678 mmHg 90%
    23:00 +4°C° 0 mm 1 m/S 677 mmHg 92%

    Morgen, 22 Oktober, Montag

    Zeit Temperatur Niederschläge Wind Luftdruck Luftfeuchtigkeit
    00:00 +3°C° 0 mm 1 m/S 677 mmHg 93%
    01:00 +3°C° 0 mm 1 m/S 677 mmHg 94%
    02:00 +3°C° 0 mm 1 m/S 677 mmHg 95%
    03:00 +3°C° 0 mm 1 m/S 677 mmHg 95%
    04:00 +3°C° 0 mm 1 m/S 677 mmHg 95%
    05:00 +3°C° 0 mm 1 m/S 677 mmHg 95%
    06:00 +3°C° 0 mm 1 m/S 677 mmHg 94%
    07:00 +3°C° 0 mm 1 m/S 677 mmHg 94%
    08:00 +4°C° 0 mm 1 m/S 677 mmHg 89%
    09:00 +4°C° 0 mm 2 m/S 677 mmHg 85%
    10:00 +5°C° 0 mm 2 m/S 678 mmHg 80%
    11:00 +6°C° 0 mm 2 m/S 677 mmHg 78%
    12:00 +7°C° 0 mm 2 m/S 677 mmHg 76%
    13:00 +7°C° 0 mm 2 m/S 677 mmHg 75%
    14:00 +7°C° 0 mm 2 m/S 677 mmHg 77%
    15:00 +6°C° 0 mm 2 m/S 677 mmHg 80%
    16:00 +6°C° 0 mm 2 m/S 677 mmHg 83%
    17:00 +6°C° 0 mm 1 m/S 677 mmHg 86%
    18:00 +6°C° 0 mm 1 m/S 677 mmHg 88%
    19:00 +5°C° 0 mm 1 m/S 677 mmHg 91%
    20:00 +6°C° 0 mm 1 m/S 677 mmHg 92%
    21:00 +6°C° 0 mm 1 m/S 678 mmHg 92%
    22:00 +6°C° 0 mm 1 m/S 678 mmHg 93%
    23:00 +6°C° 0 mm 1 m/S 678 mmHg 93%

    übermorgen, 23 Oktober, Dienstag

    Zeit Temperatur Niederschläge Wind Luftdruck Luftfeuchtigkeit
    00:00 +6°C° 0 mm 1 m/S 678 mmHg 93%
    01:00 +5°C° 0 mm 2 m/S 678 mmHg 93%
    02:00 +5°C° 0.1 mm 2 m/S 678 mmHg 93%
    03:00 +5°C° 0.1 mm 2 m/S 677 mmHg 94%
    04:00 +5°C° 0.1 mm 2 m/S 677 mmHg 94%
    05:00 +5°C° 0.1 mm 2 m/S 677 mmHg 94%
    06:00 +5°C° 0.1 mm 2 m/S 678 mmHg 93%
    07:00 +5°C° 0.1 mm 2 m/S 678 mmHg 93%
    08:00 +6°C° 0.1 mm 2 m/S 678 mmHg 89%
    09:00 +6°C° 0.1 mm 2 m/S 678 mmHg 86%
    10:00 +7°C° 0.1 mm 2 m/S 678 mmHg 82%
    11:00 +8°C° 0 mm 2 m/S 678 mmHg 78%
    12:00 +8°C° 0 mm 2 m/S 678 mmHg 74%
    13:00 +9°C° 0 mm 2 m/S 678 mmHg 71%
    14:00 +9°C° 0 mm 2 m/S 678 mmHg 72%
    15:00 +9°C° 0 mm 2 m/S 677 mmHg 73%
    16:00 +9°C° 0 mm 1 m/S 677 mmHg 74%
    17:00 +8°C° 0 mm 1 m/S 677 mmHg 79%
    18:00 +6°C° 0 mm 1 m/S 676 mmHg 84%
    19:00 +5°C° 0 mm 1 m/S 676 mmHg 88%
    20:00 +5°C° 0 mm 1 m/S 676 mmHg 89%
    21:00 +4°C° 0 mm 1 m/S 676 mmHg 89%
    22:00 +4°C° 0 mm 1 m/S 675 mmHg 89%
    23:00 +4°C° 0 mm 1 m/S 675 mmHg 87%

    24 Oktober, Mittwoch

    Zeit Temperatur Niederschläge Wind Luftdruck Luftfeuchtigkeit
    00:00 +4°C° 0 mm 1 m/S 675 mmHg 85%
    01:00 +4°C° 0 mm 1 m/S 674 mmHg 83%
    02:00 +4°C° 0 mm 1 m/S 674 mmHg 79%
    03:00 +5°C° 0 mm 1 m/S 674 mmHg 74%
    04:00 +5°C° 0 mm 1 m/S 673 mmHg 69%
    05:00 +6°C° 0 mm 1 m/S 673 mmHg 65%
    06:00 +6°C° 0 mm 1 m/S 673 mmHg 61%
    07:00 +7°C° 0 mm 1 m/S 673 mmHg 57%
    08:00 +9°C° 0 mm 1 m/S 674 mmHg 55%
    09:00 +10°C° 0 mm 2 m/S 674 mmHg 53%
    10:00 +13°C° 0 mm 2 m/S 674 mmHg 51%
    11:00 +13°C° 0 mm 3 m/S 674 mmHg 47%
    12:00 +14°C° 0 mm 4 m/S 674 mmHg 43%
    13:00 +15°C° 0 mm 4 m/S 674 mmHg 40%
    14:00 +13°C° 0.1 mm 4 m/S 673 mmHg 49%
    15:00 +11°C° 0.1 mm 3 m/S 673 mmHg 59%
    16:00 +10°C° 0.1 mm 2 m/S 673 mmHg 68%
    17:00 +8°C° 0.1 mm 2 m/S 673 mmHg 75%
    18:00 +7°C° 0.1 mm 2 m/S 673 mmHg 83%
    19:00 +7°C° 0.1 mm 1 m/S 673 mmHg 90%
    20:00 +6°C° 0.4 mm 1 m/S 674 mmHg 90%
    21:00 +6°C° 0.4 mm 1 m/S 674 mmHg 90%
    22:00 +5°C° 0.4 mm 2 m/S 674 mmHg 90%
    23:00 +4°C° 0.2 mm 2 m/S 675 mmHg 90%

    25 Oktober, Donnerstag

    Zeit Temperatur Niederschläge Wind Luftdruck Luftfeuchtigkeit
    00:00 +4°C° 0.2 mm 2 m/S 675 mmHg 89%
    01:00 +3°C° 0.2 mm 2 m/S 675 mmHg 89%
    02:00 +3°C° 0.1 mm 2 m/S 675 mmHg 89%
    03:00 +4°C° 0.1 mm 1 m/S 675 mmHg 88%
    04:00 +4°C° 0.1 mm 1 m/S 675 mmHg 88%
    05:00 +3°C° 0 mm 1 m/S 675 mmHg 88%
    06:00 +3°C° 0 mm 1 m/S 675 mmHg 88%
    07:00 +3°C° 0 mm 1 m/S 676 mmHg 88%
    08:00 +4°C° 0 mm 2 m/S 676 mmHg 83%
    09:00 +5°C° 0 mm 2 m/S 676 mmHg 78%
    10:00 +7°C° 0 mm 2 m/S 677 mmHg 74%
    11:00 +8°C° 0 mm 2 m/S 677 mmHg 68%
    12:00 +10°C° 0 mm 3 m/S 677 mmHg 63%
    13:00 +12°C° 0 mm 3 m/S 677 mmHg 58%
    14:00 +12°C° 0 mm 2 m/S 677 mmHg 61%
    15:00 +12°C° 0 mm 1 m/S 676 mmHg 63%
    16:00 +10°C° 0 mm 0 m/S 676 mmHg 66%
    17:00 +10°C° 0 mm 1 m/S 676 mmHg 71%
    18:00 +8°C° 0 mm 1 m/S 676 mmHg 76%
    19:00 +7°C° 0 mm 1 m/S 675 mmHg 81%
    20:00 +7°C° 0 mm 1 m/S 675 mmHg 82%
    21:00 +6°C° 0 mm 1 m/S 675 mmHg 83%
    22:00 +6°C° 0 mm 1 m/S 675 mmHg 84%
    23:00 +6°C° 0 mm 1 m/S 675 mmHg 84%

    26 Oktober, Freitag

    Zeit Temperatur Niederschläge Wind Luftdruck Luftfeuchtigkeit
    00:00 +6°C° 0 mm 1 m/S 675 mmHg 85%
    01:00 +6°C° 0 mm 1 m/S 675 mmHg 86%
    02:00 +6°C° 0 mm 1 m/S 675 mmHg 86%
    03:00 +5°C° 0 mm 1 m/S 675 mmHg 86%
    04:00 +4°C° 0 mm 2 m/S 674 mmHg 87%
    05:00 +5°C° 0 mm 2 m/S 674 mmHg 86%
    06:00 +5°C° 0 mm 2 m/S 674 mmHg 86%
    07:00 +5°C° 0 mm 2 m/S 674 mmHg 86%
    08:00 +7°C° 0 mm 2 m/S 675 mmHg 77%
    09:00 +10°C° 0 mm 2 m/S 675 mmHg 69%
    10:00 +14°C° 0 mm 2 m/S 676 mmHg 60%
    11:00 +14°C° 0 mm 3 m/S 676 mmHg 58%
    12:00 +16°C° 0 mm 3 m/S 676 mmHg 56%
    13:00 +16°C° 0 mm 3 m/S 675 mmHg 54%
    14:00 +14°C° 0 mm 3 m/S 675 mmHg 59%
    15:00 +14°C° 0 mm 3 m/S 674 mmHg 64%
    16:00 +13°C° 0 mm 3 m/S 674 mmHg 69%
    17:00 +11°C° 0 mm 3 m/S 673 mmHg 75%
    18:00 +10°C° 0 mm 3 m/S 673 mmHg 81%
    19:00 +8°C° 0 mm 3 m/S 673 mmHg 87%
    20:00 +9°C° 0 mm 3 m/S 673 mmHg 87%
    21:00 +9°C° 0 mm 3 m/S 673 mmHg 87%
    22:00 +8°C° 0 mm 4 m/S 673 mmHg 87%
    23:00 +8°C° 0 mm 4 m/S 673 mmHg 86%
    Mehr zeigen